Regional Weather Roundup
Issued by NWS

Home | Current Version | Previous Version | Graphics & Text | Print | Product List | Glossary On
Versions: 1 2 3 4 5 6 7 8 9 10 11 12 13 14 15 16 17 18 19 20 21 22 23 24 25 26 27
000
ASUS45 KBOU 182106
RWRCO

WEATHER ROUNDUP FOR COLORADO
NATIONAL WEATHER SERVICE DENVER/BOULDER CO
300 PM MDT FRI APR 18 2014

NOTE: "FAIR" INDICATES FEW OR NO CLOUDS BELOW 12000 FEET WITH NO
SIGNIFICANT WEATHER AND/OR OBSTRUCTIONS TO VISIBILITY.

COZ001>005-013-030-031-182200-
...NORTHWEST COLORADO...

CITY           SKY/WX    TMP DP  RH WIND       PRES   REMARKS
CRAIG          MOSUNNY   70  25  18 SW23G33   29.94F
HAYDEN         PTSUNNY   70  25  18 SW16G31   29.99S
MEEKER         MOSUNNY   72  23  16 S21G26    29.97F
MOUNT WERNER   NOT AVBL
STEAMBOAT SPGS PTSUNNY   68   6   8 SW24G37   29.98F
WALDEN         PTSUNNY   61  18  18 SW23G33   30.04F
$$

COZ006>008-011-182200-
...WEST CENTRAL VALLEYS...

CITY           SKY/WX    TMP DP  RH WIND       PRES   REMARKS
GRAND JUNCTION PTSUNNY   73  28  18 NW15      29.93F
MONTROSE       CLOUDY    74  21  13 W16G23    29.99F
EAGLE          MOSUNNY   70  19  14 SW25      30.00F
RIFLE          MOSUNNY   74  23  15 W20G29    29.95F
DELTA          CLOUDY    79  21  11 SW16G25   29.95F
NUCLA            N/A     72  19  14 SW12G23   30.05F
$$

COZ017>023-064>068-182200-
...SOUTHWEST COLORADO...

CITY           SKY/WX    TMP DP  RH WIND       PRES   REMARKS
DURANGO        CLOUDY    69  17  13 SW10      30.07F
CORTEZ         SUNNY     72  20  14 SW7G17    30.02F
PAGOSA SPRINGS CLOUDY    66  10  11 SW15      30.13F
TELLURIDE      CLOUDY    59  16  18 SW14G21   30.18F
WOLF CREEK PAS PTSUNNY   41  18  38 SW21G37   30.34F
$$

COZ009-010-012-014-032>034-037-058>063-182200-
...CENTRAL COLORADO...

CITY           SKY/WX    TMP DP  RH WIND       PRES   REMARKS
ASPEN          PTSUNNY   65  19  17 CALM      30.07F
BUENA VISTA    MOSUNNY   65  14  13 SW8       30.09S
COPPER MTN     PTSUNNY   45  12  26 W17G30    30.31F
BERTHOUD PASS  FAIR      39  32  75 MISG      30.33S
COTTONWOOD PAS MOSUNNY   59   7  12 W14G25    30.19F
GUNNISON       PTSUNNY   64  21  19 SW12G21   30.12F
KREMMLING      PTSUNNY   68  18  14 SW15G24   30.06F
LEADVILLE      PTSUNNY   50  17  27 S12G22    30.19F
MONARCH PASS   MOSUNNY   43  23  45 SW25G45   30.42S
SALIDA         CLOUDY    68  19  15 SW13G21   30.14S
SUNLIGHT       PTSUNNY   52  23  32 S3        30.24F
WILKERSON PASS MOSUNNY   52  19  28 W5        30.28F
$$

COZ069>075-182200-
...SAN LUIS VALLEY/SANGRE DE CRISTO MOUNTAINS...

CITY           SKY/WX    TMP DP  RH WIND       PRES   REMARKS
ALAMOSA        MOSUNNY   67  21  17 SW7G17    30.08F
LA VETA PASS   NOT AVBL
SAGUACHE       PTSUNNY   66  23  19 SW14G22   30.11F
$$

COZ035-036-038>040-182200-
...NORTHERN COLORADO FRONT RANGE...

CITY           SKY/WX    TMP DP  RH WIND       PRES   REMARKS
DENVER INTL AP PTSUNNY   77  23  13 SE7       29.89F
DMNS CITY PARK   N/A     77  25  14 E12G21    29.87F
AURORA         PTSUNNY   77  28  16 E12G20    29.91F
FRONT RANGE AP NOT AVBL
ERIE MUNI ARPT MOSUNNY   78  22  12 CALM      29.87F
BOULDER MUN AP MOSUNNY   73  30  20 NE7       29.88F
CENTENNIAL     MOSUNNY   76  24  14 E8        29.90F
BROOMFIELD     MOSUNNY   75  25  15 N5        29.91F
FORT COLLINS   MOSUNNY   77  34  20 W3        29.88F
LONGMONT       MOSUNNY   80  29  15 S8        29.89F
$$

COZ041-046-047-076>085-087-088-182200-
...PIKES PEAK/PALMER DIVIDE AND SOUTHERN FOOTHILLS...

CITY           SKY/WX    TMP DP  RH WIND       PRES   REMARKS
COLO. SPRINGS  PTSUNNY   73  28  18 S16G32    29.98F
A. F. ACADEMY  MOSUNNY   71  33  24 SE20G25   29.99F
ELLICOTT       NOT AVBL
FALCON         MOSUNNY   70  28  20 S18       30.04F
FORT CARSON    MOSUNNY   76  29  18 S20G35    29.94F
LIMON          SUNNY     74  23  15 S15G25    29.95F
MONUMENT HILL  SUNNY     68  27  21 S15G26    30.00F
TRINIDAD       SUNNY     75  17  11 SE6       29.99F
$$

COZ042>045-048>051-090-091-182200-
...NORTHEAST COLORADO...

CITY           SKY/WX    TMP DP  RH WIND       PRES   REMARKS
GREELEY ARPT   MOSUNNY   81  28  15 S12G18    29.87F
AKRON          MOSUNNY   77  27  15 S18G25    29.91F
BURLINGTON     SUNNY     76  33  21 S23G30    29.96F
WRAY           MOSUNNY   79  37  21 S14G23    29.91F
STERLING       MOSUNNY   82  34  17 S10G17    29.86F
HOLYOKE        MOSUNNY   81  36  19 S23       29.88F
FORT MORGAN    MOSUNNY   80  23  12 SE15G22   29.89F
$$

COZ086-089-092>099-182200-
...SOUTHEAST COLORADO...

CITY           SKY/WX    TMP DP  RH WIND       PRES   REMARKS
PUEBLO         MOSUNNY   79  31  17 S10       29.90F
LA JUNTA       SUNNY     79  27  14 VRB7      29.92F
LAMAR          SUNNY     81  31  16 SE15G22   29.90F
SPRINGFIELD      N/A     75  37  25 S23G32    29.97F
$$



USA.gov is the U.S. government's official web portal to all federal, state and local government web resources and services.